Ana Sayfa
METAR-TAF:

METAR-TAF

Havaalanları :

Campo, Kaliforniya, Amerika Birleşik Devletleri

Enlem: 32-37-34N, Boylam: 116-28-06W, yükseklik: 807 m

Güncel hava durumu gözlemi

Rapor saat 13:52 UTC de 18 dakika önce yapıldı.
Rüzgar kuzeydoğudan 6 kt
Sıcaklık 2°C
Nem 87%
Basınç 1021 hPa

METAR: KCZZ 241352Z AUTO 05006KT 02/00 A3016 RMK AO1 SLP207 T00170000 $

Saat: 06:10 (14:10 UTC)


TAF: eksik

4.000'den fazla havaalanı için hava durumu gözlemleri ve tahminleri (METAR ve TAF raporları).

Kullanılabilir istasyonlar harita üzerinde sarı ve kırmızı noktalarla gösterilir.

İstasyonun adını görmek için fareyi noktanın üzerinde gezdirin.

Sonrasında hava gözlem ve tahminlerini görmek için tıklayın.

Haritayı değiştirmek için: yaklaştırmak için siyah artı işaretli yeşil düğmeye ve uzaklaştırmak için de eksi işaretli düğmeye hızla tıklayın; bitişik haritalar için yeşil okları kullanın.


METAR-TAF: